EW8410 Weather Reports


time (UTC)temp
C
wind
direction
speed
KPH
gust
KPH
rain 1hr
cm
rain 24hr
cm
rain mn
cm
humidity
%
barometer
mb
20260507075402 12 341 1.6 6.4 0.28 0.89 0.30 95 1005.3
20260507074509 12 312 1.6 4.8 0.18 0.79 0.20 95 1005.9
20260507074502 12 318 1.6 4.8 0.18 0.79 0.20 95 1005.6
20260507073602 12 241 0.0 1.6 0.03 0.64 0.05 95 1005.0
20260507073003 12 241 0.0 3.2 0.03 0.64 0.05 95 1004.8
20260507072702 12 241 0.0 3.2 0.00 0.61 0.03 95 1004.6
20260507071823 12 241 0.0 3.2 0.00 0.61 0.03 95 1004.3
20260507071602 12 241 0.0 3.2 0.00 0.61 0.03 95 1004.5
20260507070902 12 0 0.0 3.2 0.00 0.61 0.03 95 1004.3
20260507070009 12 241 0.0 3.2 0.00 0.61 0.03 95 1004.4
20260507070003 12 184 0.0 3.2 0.00 0.61 0.03 95 1004.1
20260507065402 12 182 0.0 3.2 0.00 0.61 0.03 95 1004.0
20260507064502 12 192 0.0 3.2 0.00 0.61 0.03 95 1004.6
20260507063623 12 0 0.0 1.6 0.00 0.61 0.03 95 1004.3
20260507063007 11 51 0.0 0.0 0.00 0.61 0.03 95 1004.5
20260507062702 12 51 0.0 1.6 0.00 0.61 0.03 95 1004.2
20260507061823 12 0 0.0 3.2 0.00 0.61 0.03 95 1004.2
20260507061513 12 51 0.0 0.0 0.00 0.61 0.03 95 1004.6
20260507060902 12 51 0.0 3.2 0.00 0.61 0.03 95 1004.3
20260507060002 12 51 0.0 3.2 0.00 0.61 0.03 95 1004.5
20260507055402 12 51 0.0 3.2 0.00 0.61 0.03 95 1004.5
20260507054510 11 51 0.0 3.2 0.00 0.61 0.03 94 1005.2
20260507054502 12 51 0.0 3.2 0.00 0.61 0.03 94 1005.0
20260507053602 12 52 0.0 3.2 0.00 0.61 0.03 94 1005.0
20260507053003 11 155 0.0 1.6 0.03 0.61 0.03 94 1005.4
20260507052723 12 195 0.0 3.2 0.03 0.61 0.03 94 1005.1
20260507051802 12 202 0.0 3.2 0.03 0.61 0.03 94 1005.3
20260507051606 11 201 0.0 3.2 0.03 0.61 0.03 94 1005.6
20260507050902 12 215 0.0 3.2 0.03 0.61 0.03 94 1005.3
20260507050022 11 215 0.0 3.2 0.03 0.61 0.03 94 1005.8
20260507050002 12 149 0.0 3.2 0.03 0.61 0.03 94 1005.5
20260507045402 12 125 0.0 3.2 0.03 0.61 0.03 94 1005.6
20260507044517 11 106 0.0 3.2 0.03 0.61 0.03 94 1005.8
20260507044502 12 115 0.0 3.2 0.03 0.61 0.03 94 1005.6
20260507043602 12 242 0.0 3.2 0.03 0.61 0.03 94 1005.4
20260507043004 12 242 0.0 3.2 0.00 0.58 0.00 94 1005.7
20260507042723 12 242 0.0 3.2 0.00 0.58 0.00 94 1005.4
20260507041802 12 16 0.0 3.2 0.00 0.58 0.00 94 1005.5
20260507041605 12 333 0.0 3.2 0.00 0.58 0.00 94 1005.6
20260507040902 12 171 0.0 4.8 0.00 0.58 0.00 94 1005.4
20260507040011 12 180 0.0 3.2 0.00 0.58 0.00 94 1005.8
20260507040003 12 174 0.0 3.2 0.00 0.58 0.00 94 1005.5
20260507035403 12 159 1.6 4.8 0.00 0.58 0.58 94 1005.6
20260507034524 12 160 1.6 4.8 0.00 0.58 0.58 94 1005.6
20260507034506 12 181 0.0 4.8 0.00 0.58 0.58 94 1005.9
20260507033603 12 166 1.6 12.9 0.00 0.58 0.58 94 1005.6
20260507033005 12 107 1.6 12.9 0.00 0.58 0.58 94 1006.0
20260507032703 12 170 1.6 11.3 0.00 0.58 0.58 94 1005.7
20260507031823 12 159 1.6 8.0 0.00 0.58 0.58 94 1005.7
20260507031602 12 104 1.6 8.0 0.00 0.58 0.58 94 1005.9
20260507030903 12 134 0.0 4.8 0.00 0.58 0.58 94 1005.8
20260507030011 12 123 0.0 4.8 0.00 0.58 0.58 94 1005.9
20260507030003 12 207 1.6 4.8 0.00 0.58 0.58 94 1005.5
20260507025402 12 195 0.0 4.8 0.00 0.58 0.58 94 1005.7
20260507024524 12 166 0.0 8.0 0.00 0.58 0.58 94 1005.9
20260507024504 12 165 0.0 4.8 0.00 0.58 0.58 94 1006.1
20260507023602 12 173 3.2 8.0 0.00 0.58 0.58 93 1005.9
20260507023011 12 187 3.2 8.0 0.00 0.58 0.58 93 1006.1
20260507022703 12 189 1.6 8.0 0.00 0.58 0.58 93 1005.9
20260507021803 12 169 1.6 6.4 0.00 0.58 0.58 93 1005.8
20260507021508 12 211 1.6 12.9 0.00 0.58 0.58 94 1006.1
20260507020924 12 173 1.6 12.9 0.00 0.58 0.58 94 1006.1
20260507020006 12 204 0.0 8.0 0.00 0.58 0.58 94 1006.1
20260507020003 12 161 1.6 8.0 0.00 0.58 0.58 94 1005.8
20260507015403 12 164 1.6 6.4 0.00 0.58 0.58 94 1005.9
20260507014505 12 172 3.2 9.7 0.00 0.58 0.58 94 1006.3
20260507014503 12 182 1.6 9.7 0.00 0.58 0.58 94 1006.1
20260507013603 12 166 3.2 11.3 0.00 0.58 0.58 94 1006.1
20260507013104 12 201 1.6 8.0 0.00 0.58 0.58 94 1006.5
20260507012703 12 171 3.2 11.3 0.00 0.58 0.58 94 1006.2
20260507011825 12 165 3.2 11.3 0.00 0.58 0.58 94 1006.2
20260507011511 12 134 1.6 16.1 0.00 0.58 0.58 94 1006.5
20260507010904 12 174 3.2 16.1 0.00 0.58 0.58 94 1006.4
20260507010010 12 190 1.6 14.5 0.00 0.58 0.58 94 1006.7
20260507010003 12 177 3.2 16.1 0.00 0.58 0.58 94 1006.5
20260507005425 12 183 4.8 17.7 0.00 0.58 0.58 94 1006.5
20260507004506 12 243 4.8 14.5 0.00 0.58 0.58 93 1006.7
20260507004501 12 159 3.2 14.5 0.00 0.58 0.58 93 1006.5
20260507003601 12 163 3.2 14.5 0.00 0.58 0.58 93 1006.5
20260507003103 12 112 1.6 14.5 0.00 0.58 0.58 93 1006.7
20260507002701 12 169 3.2 14.5 0.00 0.58 0.58 93 1006.3
20260507001801 12 180 4.8 16.1 0.00 0.58 0.58 93 1006.3
20260507001606 12 198 4.8 14.5 0.00 0.58 0.58 93 1006.6
20260507000901 12 183 4.8 17.7 0.00 0.58 0.58 93 1006.2
20260507000007 12 289 9.7 17.7 0.00 0.58 0.58 93 1006.5
20260507000002 12 172 4.8 17.7 0.00 0.58 0.58 93 1006.3
20260506235422 12 173 3.2 16.1 0.00 0.58 0.58 93 1006.3
20260506234507 12 304 3.2 19.3 0.03 0.58 0.58 93 1006.5
20260506234502 12 190 4.8 19.3 0.03 0.58 0.58 93 1006.2
20260506233623 12 180 4.8 17.7 0.05 0.58 0.58 93 1006.1
20260506233003 12 85 3.2 17.7 0.05 0.58 0.58 94 1006.4
20260506232722 12 177 6.4 24.1 0.08 0.58 0.58 94 1006.0
20260506231802 12 200 8.0 25.7 0.13 0.58 0.58 94 1006.1
20260506231601 12 153 9.7 27.4 0.13 0.58 0.58 94 1006.4
20260506230902 12 175 3.2 16.1 0.15 0.58 0.58 94 1006.1
20260506230008 12 256 4.8 16.1 0.23 0.58 0.58 94 1006.3
20260506230002 12 173 4.8 17.7 0.23 0.58 0.58 94 1006.1
20260506225401 12 169 4.8 16.1 0.23 0.58 0.58 94 1006.0
20260506224506 12 15 4.8 22.5 0.28 0.56 0.56 94 1006.3
20260506224502 12 176 4.8 22.5 0.28 0.56 0.56 94 1006.0
20260506223602 12 181 4.8 22.5 0.28 0.53 0.53 94 1006.0
20260506223008 12 143 3.2 17.7 0.30 0.53 0.53 93 1006.2
20260506222702 12 176 4.8 16.1 0.28 0.51 0.51 93 1006.1
20260506221802 12 184 6.4 29.0 0.25 0.46 0.46 92 1006.2
20260506221506 12 146 6.4 27.4 0.25 0.46 0.46 92 1006.5
20260506220902 12 177 4.8 12.9 0.23 0.43 0.43 92 1006.2
20260506220005 12 135 6.4 19.3 0.18 0.36 0.36 92 1006.6
20260506220002 12 174 6.4 20.9 0.18 0.36 0.36 92 1006.3
20260506215402 12 172 6.4 20.9 0.18 0.36 0.36 92 1006.5
20260506214507 12 154 4.8 14.5 0.10 0.28 0.28 92 1007.0
20260506214502 12 168 4.8 16.1 0.13 0.28 0.28 92 1006.6
20260506213623 12 180 4.8 19.3 0.10 0.25 0.25 92 1006.6
20260506213011 12 188 3.2 16.1 0.10 0.23 0.23 91 1006.8
20260506212702 12 170 3.2 17.7 0.10 0.23 0.23 91 1006.7
20260506211802 12 164 3.2 17.7 0.10 0.20 0.20 92 1006.7
20260506211603 12 187 1.6 17.7 0.10 0.20 0.20 92 1006.9
20260506210902 12 173 4.8 17.7 0.10 0.20 0.20 92 1006.8
20260506210008 12 124 3.2 9.7 0.08 0.18 0.18 92 1007.1
20260506210002 12 163 3.2 8.0 0.08 0.18 0.18 92 1006.9
20260506205423 12 155 3.2 12.9 0.08 0.18 0.18 91 1006.8
20260506204523 12 155 3.2 12.9 0.08 0.15 0.15 91 1006.9
20260506204504 12 75 3.2 11.3 0.08 0.15 0.15 91 1007.2
20260506203602 12 156 3.2 22.5 0.08 0.15 0.15 90 1007.1
20260506203009 12 324 3.2 22.5 0.08 0.13 0.13 90 1007.4
20260506202702 12 166 6.4 22.5 0.10 0.13 0.13 89 1007.1
20260506201802 13 184 6.4 16.1 0.10 0.10 0.10 88 1007.2
20260506201510 12 251 6.4 16.1 0.10 0.10 0.10 88 1007.5
20260506200902 13 165 4.8 16.1 0.10 0.10 0.10 88 1007.3
20260506200009 13 147 1.6 16.1 0.10 0.10 0.10 88 1007.7
20260506200002 13 186 4.8 16.1 0.10 0.10 0.10 88 1007.4
20260506195402 13 184 4.8 19.3 0.10 0.10 0.10 88 1007.4
20260506194506 13 214 3.2 19.3 0.08 0.08 0.08 89 1007.8
20260506194502 13 162 4.8 25.7 0.08 0.08 0.08 89 1007.5
20260506193602 13 177 6.4 25.7 0.08 0.08 0.08 87 1007.6
20260506193013 13 218 3.2 24.1 0.05 0.05 0.05 86 1007.9
20260506192723 14 163 8.0 27.4 0.03 0.03 0.03 85 1007.7
20260506191802 15 171 6.4 22.5 0.00 0.00 0.00 82 1007.8
20260506191510 15 167 4.8 16.1 0.00 0.00 0.00 82 1008.1
20260506190902 15 191 6.4 25.7 0.00 0.00 0.00 80 1008.0
20260506190023 15 162 6.4 22.5 0.00 0.00 0.00 79 1007.9
20260506190002 15 115 4.8 17.7 0.00 0.00 0.00 79 1008.3
20260506185402 15 177 8.0 27.4 0.00 0.00 0.00 79 1007.9
20260506184510 15 211 6.4 32.2 0.00 0.00 0.00 79 1008.3
20260506184502 15 167 6.4 32.2 0.00 0.00 0.00 79 1008.1
20260506183623 15 184 8.0 32.2 0.00 0.00 0.00 79 1008.1
20260506183008 15 213 6.4 16.1 0.00 0.00 0.00 78 1008.4
20260506182702 15 175 8.0 24.1 0.00 0.00 0.00 78 1008.0
20260506181803 16 184 6.4 24.1 0.00 0.00 0.00 77 1008.2
20260506181502 15 162 4.8 17.7 0.00 0.00 0.00 78 1008.7
20260506180902 16 167 8.0 27.4 0.00 0.00 0.00 78 1008.5
20260506180010 15 240 11.3 29.0 0.00 0.00 0.00 78 1008.7
20260506180003 15 175 9.7 33.8 0.00 0.00 0.00 78 1008.4
20260506175403 15 178 9.7 33.8 0.00 0.00 0.00 78 1008.6
20260506174506 15 183 12.9 29.0 0.00 0.00 0.00 77 1009.0
20260506174503 16 173 11.3 29.0 0.00 0.00 0.00 77 1008.9
20260506173603 16 173 8.0 25.7 0.00 0.00 0.00 77 1008.9
20260506173004 16 194 11.3 19.3 0.00 0.00 0.00 76 1009.6
20260506172703 16 191 8.0 25.7 0.00 0.00 0.00 76 1009.3
20260506171803 16 174 6.4 27.4 0.00 0.00 0.00 75 1009.3
20260506171602 16 205 4.8 27.4 0.00 0.00 0.00 75 1009.5
20260506170902 17 166 8.0 27.4 0.00 0.00 0.00 75 1009.1
20260506170007 17 104 8.0 30.6 0.00 0.00 0.00 74 1009.4
20260506170003 17 165 9.7 33.8 0.00 0.00 0.00 74 1009.3
20260506165403 17 189 9.7 33.8 0.00 0.00 0.00 75 1009.2
20260506164524 17 185 9.7 27.4 0.00 0.00 0.00 75 1009.5
20260506164507 16 119 8.0 29.0 0.00 0.00 0.00 75 1009.7
20260506163603 16 174 6.4 29.0 0.00 0.00 0.00 76 1009.6
20260506163005 16 27 1.6 25.7 0.00 0.00 0.00 78 1009.9
20260506162703 16 167 6.4 25.7 0.00 0.00 0.00 77 1009.6
20260506161803 16 168 8.0 33.8 0.00 0.00 0.00 77 1009.8
20260506161510 16 51 6.4 30.6 0.00 0.00 0.00 77 1010.0
20260506160924 16 173 6.4 25.7 0.00 0.00 0.00 77 1010.0
20260506160012 16 223 3.2 32.2 0.00 0.00 0.00 76 1010.3
20260506160003 16 177 8.0 32.2 0.00 0.00 0.00 76 1010.0
20260506155403 17 175 8.0 32.2 0.00 0.00 0.00 74 1010.2
20260506154607 17 200 9.7 33.8 0.00 0.00 0.00 74 1010.4
20260506154503 17 191 9.7 33.8 0.00 0.00 0.00 74 1010.1
20260506153621 17 175 8.0 29.0 0.00 0.00 0.00 73 1010.2
20260506153100 17 94 8.0 20.9 0.00 0.00 0.00 73 1010.4
20260506152700 17 184 8.0 20.9 0.00 0.00 0.00 73 1010.1
20260506151821 17 170 8.0 30.6 0.00 0.00 0.00 75 1010.2
20260506151505 17 132 4.8 30.6 0.00 0.00 0.00 76 1010.5
20260506150900 17 187 9.7 30.6 0.00 0.00 0.00 75 1010.2
20260506150000 17 185 9.7 30.6 0.00 0.00 0.00 78 1010.5
20260506145400 16 171 9.7 30.6 0.00 0.00 0.00 75 1010.6
20260506144521 16 180 9.7 27.4 0.00 0.00 0.00 76 1010.3
20260506144508 16 255 8.0 24.1 0.00 0.00 0.00 76 1010.5
20260506143621 16 166 9.7 25.7 0.00 0.00 0.00 76 1010.3
20260506143007 16 136 6.4 33.8 0.00 0.00 0.00 79 1010.6
20260506142700 16 180 8.0 35.4 0.00 0.00 0.00 78 1010.5
20260506141800 16 196 8.0 29.0 0.00 0.00 0.00 78 1010.4
20260506141600 15 202 4.8 24.1 0.00 0.00 0.00 77 1010.6
20260506140900 16 184 8.0 29.0 0.00 0.00 0.00 77 1010.2
20260506140007 16 82 8.0 29.0 0.00 0.00 0.00 78 1010.3
20260506140000 16 185 8.0 29.0 0.00 0.00 0.00 78 1010.0
20260506135400 16 187 8.0 25.7 0.00 0.00 0.00 77 1010.1
20260506134521 16 190 6.4 25.7 0.00 0.00 0.00 77 1010.2
20260506134507 16 221 3.2 25.7 0.00 0.00 0.00 77 1010.4
20260506133600 16 161 6.4 25.7 0.00 0.00 0.00 78 1010.3
20260506133002 16 161 4.8 25.7 0.00 0.00 0.00 78 1010.7
20260506132721 16 182 6.4 27.4 0.00 0.00 0.00 79 1010.5
20260506131800 16 156 8.0 27.4 0.00 0.00 0.00 80 1010.6
20260506131502 15 138 8.0 24.1 0.00 0.00 0.00 80 1010.6
20260506130900 15 161 4.8 27.4 0.00 0.00 0.00 81 1010.5
20260506130106 15 200 4.8 27.4 0.00 0.00 0.00 80 1010.6
20260506130000 15 170 8.0 27.4 0.00 0.00 0.00 81 1010.5
20260506125400 15 181 8.0 27.4 0.00 0.00 0.00 81 1010.5
20260506124521 15 175 8.0 25.7 0.00 0.00 0.00 81 1010.5
20260506124505 15 196 6.4 24.1 0.00 0.00 0.00 81 1010.7
20260506123600 15 183 6.4 24.1 0.00 0.00 0.00 82 1010.3
20260506123002 15 188 4.8 24.1 0.00 0.00 0.00 82 1010.6
20260506122701 15 196 4.8 24.1 0.00 0.00 0.00 83 1010.3
20260506121800 14 188 3.2 17.7 0.00 0.00 0.00 84 1010.6
20260506121504 14 140 4.8 17.7 0.00 0.00 0.00 83 1010.8
20260506120901 14 179 8.0 27.4 0.00 0.00 0.00 83 1010.6
20260506120111 14 217 6.4 24.1 0.00 0.00 0.00 84 1010.8
20260506120022 14 179 8.0 24.1 0.00 0.00 0.00 84 1010.6
20260506115401 14 192 8.0 24.1 0.00 0.00 0.00 85 1010.5
20260506114508 13 181 4.8 17.7 0.00 0.00 0.00 86 1011.0
20260506114501 14 173 4.8 17.7 0.00 0.00 0.00 86 1010.7
20260506113601 13 181 8.0 20.9 0.00 0.00 0.00 86 1010.9
20260506113002 13 221 6.4 20.9 0.00 0.00 0.00 86 1011.1
20260506112701 13 176 8.0 20.9 0.00 0.00 0.00 87 1010.8
20260506111822 13 171 6.4 17.7 0.00 0.00 0.00 87 1010.9
20260506111506 13 189 8.0 19.3 0.00 0.00 0.00 87 1011.1
20260506110922 13 183 4.8 19.3 0.00 0.00 0.00 87 1010.9
20260506110022 13 194 4.8 19.3 0.00 0.00 0.00 87 1010.7
20260506110005 13 177 6.4 17.7 0.00 0.00 0.00 87 1011.0
20260506105401 13 211 4.8 27.4 0.00 0.00 0.00 87 1010.7
20260506104559 13 170 4.8 27.4 0.00 0.00 0.00 87 1010.8
20260506104501 13 166 6.4 24.1 0.00 0.00 0.00 87 1010.6
20260506103601 13 177 4.8 16.1 0.00 0.00 0.00 88 1010.6
20260506103006 13 85 4.8 16.1 0.00 0.00 0.00 88 1010.9
20260506102701 13 183 4.8 20.9 0.00 0.00 0.00 88 1010.5
20260506101822 13 158 4.8 20.9 0.00 0.00 0.00 88 1010.5
20260506101502 13 148 4.8 25.7 0.00 0.00 0.00 88 1010.9
20260506100901 13 161 6.4 27.4 0.00 0.00 0.00 88 1010.6
20260506100008 13 107 3.2 16.1 0.00 0.00 0.00 88 1010.7
20260506100001 13 172 4.8 22.5 0.00 0.00 0.00 88 1010.4
20260506095401 13 181 6.4 22.5 0.00 0.00 0.00 88 1010.4
20260506094505 12 167 3.2 17.7 0.00 0.00 0.00 89 1010.6
20260506094501 13 173 6.4 19.3 0.00 0.00 0.00 89 1010.3
20260506093601 13 177 4.8 20.9 0.00 0.00 0.00 89 1010.3
20260506093113 12 76 4.8 20.9 0.00 0.00 0.00 89 1010.7
20260506092701 13 180 4.8 16.1 0.00 0.00 0.00 89 1010.5
20260506091801 13 180 4.8 24.1 0.00 0.00 0.00 89 1010.5
20260506091508 12 300 3.2 24.1 0.00 0.00 0.00 89 1010.7
20260506090901 13 190 4.8 20.9 0.00 0.00 0.00 89 1010.5
20260506090004 12 186 4.8 20.9 0.00 0.00 0.00 89 1010.8
20260506090001 13 170 6.4 20.9 0.00 0.00 0.00 89 1010.5
20260506085401 13 167 4.8 22.5 0.00 0.00 0.00 89 1010.5
20260506084508 13 119 4.8 20.9 0.00 0.00 0.00 89 1010.9
20260506084501 13 179 6.4 25.7 0.00 0.00 0.00 89 1010.6
20260506083601 13 167 6.4 24.1 0.00 0.00 0.00 89 1010.7
20260506083101 13 193 3.2 24.1 0.00 0.00 0.00 89 1011.0
20260506082722 13 176 4.8 24.1 0.00 0.00 0.00 89 1010.8
20260506081801 13 177 4.8 19.3 0.00 0.00 0.00 88 1010.8
20260506081508 13 186 1.6 17.7 0.00 0.00 0.00 88 1011.1
20260506080922 13 179 6.4 22.5 0.00 0.00 0.00 88 1010.9